Project,Study,Ord_Occ,Event_Num,Cast_ID,Date_Time_UTC,Date_Time_PST,Lat_Dec,Lon_Dec,Sta_ID,Line,Sta,Depth,Pressure,PrQ,Temp1,Temp1Q,Temp2,Temp2Q,TempAve,Salt1,Salt1Q,Salt1_Corr,Salt2,Salt2Q,Salt2_Corr,SaltAve_Corr,Ox1,Ox1Q,Ox1_CruiseCorr,Ox1_StaCorr,Ox2,Ox2Q,Ox2_CruiseCorr,Ox2_StaCorr,OxAve_StaCorr,Ox1uM,Ox1uM_CruiseCorr,Ox1uM_StaCorr,Ox2uM,Ox2uM_CruiseCorr,Ox2uM_StaCorr,OxAveuM_StaCorr,FluorV,FluorQ,EstChl_CruiseCorr,EstChl_StaCorr,ISUSV,ISUSQ,EstNO3_CruiseCorr,EstNO3_StaCorr,SigThetaTS1,SigThetaTS1Q,SigThetaTS2,SigThetaTS2Q,BAT,XMiss,TransQ,pH,pHQ,SPAR,SPARQ,PAR,PARQ,PoT1,PoT2,DynHt,SVA,OxSat1,OxSat2,BTL_Depth,BTL_Temp,SaltB,OxB,OxBuM,Chl-a,Phaeo,NO3,NO2,NH4,PO4,SIL
CalCOFI,2105SH,026,,2105_026d,09-May-2021 17:52:21,09-May-2021 09:52:21,33.82435,-118.62593,086.7 035.0,086.7,035.0,3.000,3.022,,17.3517,,17.3578,,17.3548,33.5884,,33.5896,33.5886,,33.5905,33.5901,5.5670,,5.8881,5.9852,5.6614,,5.9235,5.9708,5.9780,242.711,256.2289,256.1862,246.827,267.2571,257.0525,256.6194,0.0532,,0.1742,0.2490,2.6949,,1.3334,,24.3478,,24.3465,,,,,,,,,,,17.3512,17.3573,-0.0023,356.992,101.510,103.244,3,17.399,33.6074,,256.84,0.420,0.122,,,,,
CalCOFI,2105SH,026,,2105_026d,09-May-2021 17:53:08,09-May-2021 09:53:08,33.82451,-118.62576,086.7 035.0,086.7,035.0,4.000,4.029,,17.3974,,17.3931,,17.3953,33.5889,,33.5901,33.5885,,33.5904,33.5903,5.5790,,5.9006,5.9978,5.6518,,5.9135,5.9609,5.9794,243.236,256.7777,256.7303,246.412,267.8241,256.6272,256.6788,0.0490,,0.1431,0.2421,2.6910,,1.3334,,24.3373,,24.3381,,,,,,,,,,,17.3967,17.3925,0.0068,358.024,101.818,103.139,,,,,,,,,,,,
CalCOFI,2105SH,026,,2105_026d,09-May-2021 17:53:08,09-May-2021 09:53:08,33.82451,-118.62576,086.7 035.0,086.7,035.0,5.000,5.036,,17.3730,,17.3747,,17.3739,33.5885,,33.5897,33.5883,,33.5902,33.5900,5.5705,,5.8917,5.9889,5.6540,,5.9158,5.9631,5.9760,242.869,256.3941,256.3499,246.508,267.4277,256.7256,256.5378,0.0499,,0.1498,0.2436,2.6918,,1.3334,,24.3429,,24.3424,,,,,,,,,,,17.3722,17.3739,0.0100,357.527,101.617,103.143,,,,,,,,,,,,
CalCOFI,2105SH,026,,2105_026d,09-May-2021 17:53:11,09-May-2021 09:53:11,33.82452,-118.62576,086.7 035.0,086.7,035.0,6.000,6.043,,17.3631,,17.3606,,17.3619,33.5895,,33.5907,33.5879,,33.5898,33.5903,5.6146,,5.9378,6.0354,5.6649,,5.9271,5.9744,6.0049,244.788,258.4002,258.3391,246.982,269.5002,257.2113,257.7752,0.0507,,0.1557,0.2449,2.6929,,1.3334,,24.3460,,24.3454,,,,,,,,,,,17.3621,17.3596,0.0136,357.261,102.402,103.314,,,,,,,,,,,,
CalCOFI,2105SH,026,,2105_026d,09-May-2021 17:53:12,09-May-2021 09:53:12,33.82452,-118.62576,086.7 035.0,086.7,035.0,7.000,7.050,,17.3225,,17.3233,,17.3229,33.5898,,33.5910,33.5882,,33.5901,33.5906,5.6055,,5.9283,6.0258,5.6929,,5.9561,6.0033,6.0146,244.389,257.9831,257.9255,248.199,269.0693,258.4585,258.1920,0.0537,,0.1779,0.2498,2.6941,,1.3334,,24.3560,,24.3546,,,,,,,,,,,17.3213,17.3222,0.0172,356.349,102.156,103.749,,,,,,,,,,,,
CalCOFI,2105SH,026,,2105_026d,09-May-2021 17:53:14,09-May-2021 09:53:14,33.82452,-118.62574,086.7 035.0,086.7,035.0,8.000,8.058,,17.2944,,17.2934,,17.2939,33.5922,,33.5934,33.5906,,33.5925,33.5930,5.5906,,5.9127,6.0101,5.7054,,5.9691,6.0163,6.0132,243.739,257.3036,257.2517,248.742,268.3673,259.0149,258.1333,0.0564,,0.1978,0.2542,2.6956,,1.3334,,24.3645,,24.3636,,,,,,,,,,,17.2931,17.2921,0.0208,355.566,101.832,103.919,,,,,,,,,,,,
CalCOFI,2105SH,026,,2105_026d,09-May-2021 17:53:16,09-May-2021 09:53:16,33.82454,-118.62572,086.7 035.0,086.7,035.0,9.000,9.065,,17.2674,,17.2673,,17.2674,33.5982,,33.5994,33.5960,,33.5979,33.5987,5.6288,,5.9527,6.0503,5.7139,,5.9779,6.0250,6.0377,245.401,259.0410,258.9745,249.112,270.1623,259.3941,259.1843,0.0586,,0.2141,0.2578,2.6979,,1.3334,,24.3756,,24.3740,,,,,,,,,,,17.2659,17.2658,0.0243,354.542,102.478,104.026,,,,,,,,,,,,
CalCOFI,2105SH,026,,2105_026d,09-May-2021 17:53:17,09-May-2021 09:53:17,33.82454,-118.62572,086.7 035.0,086.7,035.0,10.000,10.072,,17.2213,,17.2216,,17.2215,33.5971,,33.5983,33.5947,,33.5966,33.5975,5.6615,,5.9869,6.0848,5.7275,,5.9919,6.0391,6.0620,246.824,260.5286,260.4494,249.701,271.6991,259.9977,260.2236,0.0594,,0.2200,0.2591,2.7003,,1.3334,,24.3858,,24.3839,,,,,,,,,,,17.2196,17.2200,0.0279,353.610,102.981,104.181,,,,,,,,,,,,
CalCOFI,2105SH,026,,2105_026d,09-May-2021 17:53:20,09-May-2021 09:53:20,33.82454,-118.62572,086.7 035.0,086.7,035.0,11.000,11.079,,17.1840,,17.1829,,17.1835,33.5937,,33.5949,33.5911,,33.5930,33.5940,5.6702,,5.9960,6.0940,5.7250,,5.9894,6.0365,6.0653,247.200,260.9217,260.8392,249.592,272.1052,259.8860,260.3626,0.0611,,0.2325,0.2619,2.7037,,1.3334,,24.3921,,24.3904,,,,,,,,,,,17.1822,17.1811,0.0314,353.045,103.063,104.056,11,17.303,,,259.27,0.704,0.221,1.72,0.052,0.06,0.37,1.80
CalCOFI,2105SH,026,,2105_026d,09-May-2021 17:53:22,09-May-2021 09:53:22,33.82454,-118.62570,086.7 035.0,086.7,035.0,12.000,12.086,,17.1315,,17.1284,,17.1300,33.5905,,33.5917,33.5855,,33.5874,33.5896,5.6565,,5.9817,6.0795,5.7508,,6.0161,6.0632,6.0714,246.603,260.2976,260.2204,250.711,271.4604,261.0327,260.6266,0.0613,,0.2340,0.2623,2.7086,,1.3334,,24.4021,,24.3990,,,,,,,,,,,17.1295,17.1264,0.0350,352.122,102.709,104.411,,,,,,,,,,,,
CalCOFI,2105SH,026,,2105_026d,09-May-2021 17:53:23,09-May-2021 09:53:23,33.82456,-118.62570,086.7 035.0,086.7,035.0,13.000,13.094,,16.9897,,16.9838,,16.9868,33.5897,,33.5909,33.5774,,33.5793,33.5851,5.6867,,6.0133,6.1114,5.7888,,6.0554,6.1025,6.1070,247.911,261.6650,261.5761,252.362,272.8731,262.7246,262.1504,0.0613,,0.2340,0.2623,2.7119,,1.3334,,24.4350,,24.4269,,,,,,,,,,,16.9876,16.9816,0.0385,349.020,102.975,104.804,,,,,,,,,,,,
CalCOFI,2105SH,026,,2105_026d,09-May-2021 17:53:25,09-May-2021 09:53:25,33.82456,-118.62570,086.7 035.0,086.7,035.0,14.000,14.101,,16.7336,,16.7271,,16.7304,33.5892,,33.5904,33.5744,,33.5763,33.5834,5.7295,,6.0580,6.1565,5.8496,,6.1184,6.1653,6.1609,249.760,263.5979,263.4927,255.000,274.8700,265.4279,264.4603,0.0625,,0.2428,0.2642,2.7149,,1.3334,,24.4946,,24.4847,,,,,,,,,,,16.7313,16.7249,0.0420,343.369,103.237,105.378,,,,,,,,,,,,
CalCOFI,2105SH,026,,2105_026d,09-May-2021 17:53:26,09-May-2021 09:53:26,33.82456,-118.62569,086.7 035.0,086.7,035.0,15.000,15.108,,16.4904,,16.4777,,16.4841,33.5924,,33.5936,33.5726,,33.5745,33.5841,5.7908,,6.1221,6.2211,5.9079,,6.1788,6.2256,6.2234,252.419,266.3776,266.2489,257.527,277.7417,268.0175,267.1332,0.0670,,0.2758,0.2716,2.7183,,1.3334,,24.5534,,24.5411,,,,,,,,,,,16.4880,16.4753,0.0454,337.793,103.852,105.913,,,,,,,,,,,,
CalCOFI,2105SH,026,,2105_026d,09-May-2021 17:53:28,09-May-2021 09:53:28,33.82457,-118.62568,086.7 035.0,086.7,035.0,16.000,16.115,,16.0605,,16.0567,,16.0586,33.5900,,33.5912,33.5734,,33.5753,33.5833,5.8706,,6.2056,6.3052,5.9415,,6.2136,6.2603,6.2828,255.874,269.9895,269.8301,258.966,281.4731,269.4922,269.6612,0.0765,,0.3453,0.2872,2.7220,,1.3334,,24.6500,,24.6381,,,,,,,,,,,16.0580,16.0542,0.0488,328.611,104.403,105.645,,,,,,,,,,,,
CalCOFI,2105SH,026,,2105_026d,09-May-2021 17:53:31,09-May-2021 09:53:31,33.82458,-118.62568,086.7 035.0,086.7,035.0,17.000,17.123,,15.6937,,15.6749,,15.6843,33.5864,,33.5876,33.5608,,33.5627,33.5752,5.8494,,6.1834,6.2829,5.9456,,6.2179,6.2646,6.2738,254.930,269.0026,268.8516,259.128,280.4536,269.6582,269.2549,0.0811,,0.3787,0.2947,2.7212,,1.3334,,24.7298,,24.7143,,,,,,,,,,,15.6910,15.6722,0.0521,321.035,103.276,104.921,,,,,,,,,,,,
CalCOFI,2105SH,026,,2105_026d,09-May-2021 17:53:32,09-May-2021 09:53:32,33.82458,-118.62567,086.7 035.0,086.7,035.0,18.000,18.130,,15.0893,,15.0749,,15.0821,33.5993,,33.6005,33.5697,,33.5716,33.5861,5.8802,,6.2156,6.3153,5.9382,,6.2102,6.2569,6.2861,256.234,270.3658,270.2032,258.769,281.8619,269.2903,269.7468,0.0954,,0.4821,0.3182,2.7147,,1.3334,,24.8732,,24.8536,,,,,,,,,,,15.0866,15.0722,0.0552,307.392,102.593,103.558,,,,,,,,,,,,
CalCOFI,2105SH,026,,2105_026d,09-May-2021 17:53:34,09-May-2021 09:53:34,33.82460,-118.62566,086.7 035.0,086.7,035.0,19.000,19.137,,14.8134,,14.8088,,14.8111,33.6086,,33.6098,33.5898,,33.5917,33.6008,5.7964,,6.1280,6.2270,5.7970,,6.0639,6.1110,6.1690,252.568,266.5334,266.4033,252.597,277.9026,262.9654,264.6844,0.1407,,0.8032,0.3925,2.7016,,1.3334,,24.9403,,24.9268,,,,,,,,,,,14.8106,14.8059,0.0583,301.028,100.583,100.573,,,,,,,,,,,,
CalCOFI,2105SH,026,,2105_026d,09-May-2021 17:53:36,09-May-2021 09:53:36,33.82460,-118.62566,086.7 035.0,086.7,035.0,20.000,20.144,,14.5220,,14.5092,,14.5156,33.6173,,33.6185,33.5915,,33.5934,33.6060,5.5506,,5.8709,5.9679,5.5746,,5.8336,5.8810,5.9245,241.842,255.3204,255.2854,242.892,266.3185,253.0200,254.1527,0.1639,,0.9638,0.4306,2.6786,,1.3334,,25.0094,,24.9922,,,,,,,,,,,14.5190,14.5062,0.0613,294.476,95.763,96.136,,,,,,,,,,,,
CalCOFI,2105SH,026,,2105_026d,09-May-2021 17:53:38,09-May-2021 09:53:38,33.82460,-118.62565,086.7 035.0,086.7,035.0,21.000,21.152,,13.9085,,13.8849,,13.8967,33.6030,,33.6042,33.5535,,33.5554,33.5798,5.4792,,5.7962,5.8926,5.5583,,5.8167,5.8642,5.8784,238.702,252.0379,252.0307,242.159,262.9273,252.2689,252.1498,0.1778,,1.0588,0.4534,2.6529,,1.3334,,25.1270,,25.0936,,,,,,,,,,,13.9055,13.8819,0.0642,283.290,93.356,94.630,,,,,,,,,,,,
CalCOFI,2105SH,026,,2105_026d,09-May-2021 17:53:39,09-May-2021 09:53:39,33.82461,-118.62564,086.7 035.0,086.7,035.0,22.000,22.159,,13.2169,,13.2035,,13.2102,33.5375,,33.5387,33.4945,,33.4964,33.5176,5.5209,,5.8399,5.9366,5.5712,,5.8300,5.8775,5.9071,240.497,253.9144,253.8913,242.696,264.8659,252.8192,253.3553,0.1592,,0.9315,0.4229,2.6254,,1.3334,,25.2173,,25.1867,,,,,,,,,,,13.2138,13.2005,0.0670,274.702,92.708,93.503,,,,,,,,,,,,
CalCOFI,2105SH,026,,2105_026d,09-May-2021 17:53:41,09-May-2021 09:53:41,33.82462,-118.62564,086.7 035.0,086.7,035.0,23.000,23.166,,12.9954,,12.9914,,12.9934,33.5134,,33.5146,33.4886,,33.4905,33.5026,5.4711,,5.7878,5.8841,5.5211,,5.7782,5.8257,5.8549,238.323,251.6417,251.6378,240.507,262.5180,250.5760,251.1069,0.1489,,0.8603,0.4060,2.5894,,1.3334,,25.2429,,25.2244,,,,,,,,,,,12.9923,12.9883,0.0698,272.286,91.442,92.256,,,,,,,,,,,,
CalCOFI,2105SH,026,,2105_026d,09-May-2021 17:53:43,09-May-2021 09:53:43,33.82462,-118.62562,086.7 035.0,086.7,035.0,24.000,24.174,,12.8618,,12.8595,,12.8607,33.5153,,33.5165,33.4972,,33.4991,33.5078,5.3828,,5.6954,5.7910,5.4533,,5.7079,5.7557,5.7734,234.472,247.6158,247.6461,237.546,258.3589,247.5416,247.5939,0.1650,,0.9714,0.4324,2.5419,,1.3334,,25.2708,,25.2572,,,,,,,,,,,12.8585,12.8563,0.0725,269.653,89.719,90.880,,,,,,,,,,,,
CalCOFI,2105SH,026,,2105_026d,09-May-2021 17:53:45,09-May-2021 09:53:45,33.82462,-118.62562,086.7 035.0,086.7,035.0,25.000,25.181,,12.8039,,12.8036,,12.8038,33.5166,,33.5178,33.5016,,33.5035,33.5107,5.2764,,5.5842,5.6788,5.3441,,5.5948,5.6428,5.6608,229.835,242.7683,242.8397,232.786,253.3509,242.6637,242.7517,0.1677,,0.9899,0.4368,2.5002,,1.3334,,25.2831,,25.2716,,,,,,,,,,,12.8006,12.8002,0.0752,268.501,87.841,88.959,,,,,,,,,,,,
CalCOFI,2105SH,026,,2105_026d,09-May-2021 17:53:47,09-May-2021 09:53:47,33.82463,-118.62562,086.7 035.0,086.7,035.0,26.000,26.188,,12.6893,,12.6860,,12.6877,33.5234,,33.5246,33.5063,,33.5082,33.5164,5.2358,,5.5417,5.6360,5.3029,,5.5521,5.6002,5.6181,228.059,240.9117,240.9988,230.986,251.4329,240.8191,240.9090,0.1606,,0.9412,0.4251,2.4693,,1.3334,,25.3108,,25.2982,,,,,,,,,,,12.6858,12.6825,0.0779,265.890,86.962,88.061,,,,,,,,,,,,
CalCOFI,2105SH,026,,2105_026d,09-May-2021 17:53:49,09-May-2021 09:53:49,33.82464,-118.62560,086.7 035.0,086.7,035.0,27.000,27.195,,12.5864,,12.5846,,12.5855,33.5309,,33.5321,33.5184,,33.5203,33.5262,5.1254,,5.4262,5.5197,5.2037,,5.4494,5.4976,5.5087,223.245,235.8791,236.0090,226.657,246.2337,236.3829,236.1960,0.1846,,1.1050,0.4645,2.4333,,1.3334,,25.3367,,25.3273,,,,,,,,,,,12.5828,12.5810,0.0806,263.445,84.951,86.239,,,,,,,,,,,,
CalCOFI,2105SH,026,,2105_026d,09-May-2021 17:53:51,09-May-2021 09:53:51,33.82464,-118.62560,086.7 035.0,086.7,035.0,28.000,28.203,,12.4539,,12.4492,,12.4516,33.5319,,33.5331,33.5187,,33.5206,33.5269,5.0477,,5.3450,5.4378,5.1169,,5.3595,5.4079,5.4229,219.855,232.3352,232.4951,222.870,242.5725,232.5021,232.4986,0.2603,,1.6036,0.5887,2.3929,,1.3334,,25.3631,,25.3538,,,,,,,,,,,12.4502,12.4455,0.0832,260.957,83.433,84.561,,,,,,,,,,,,
CalCOFI,2105SH,026,,2105_026d,09-May-2021 17:53:52,09-May-2021 09:53:52,33.82465,-118.62559,086.7 035.0,086.7,035.0,29.000,29.210,,12.4270,,12.4277,,12.4274,33.5269,,33.5281,33.5179,,33.5198,33.5240,4.9935,,5.2883,5.3806,5.0545,,5.2949,5.3434,5.3620,217.494,229.8670,230.0478,220.153,240.0226,229.7178,229.8828,0.4345,,2.6467,0.8745,2.3697,,1.3334,,25.3645,,25.3573,,,,,,,,,,,12.4232,12.4239,0.0858,260.849,82.488,83.493,,,,,,,,,,,,
CalCOFI,2105SH,026,,2105_026d,09-May-2021 17:53:54,09-May-2021 09:53:54,33.82466,-118.62558,086.7 035.0,086.7,035.0,30.000,30.217,,12.3990,,12.3971,,12.3981,33.5229,,33.5241,33.5131,,33.5150,33.5196,4.9775,,5.2716,5.3638,5.0335,,5.2731,5.3217,5.3428,216.795,229.1363,229.3233,219.237,239.2677,228.7791,229.0512,0.5979,,3.4930,1.1425,2.3495,,1.3334,,25.3668,,25.3596,,,,,,,,,,,12.3950,12.3931,0.0885,260.658,82.173,83.090,30,12.441,,,228.36,1.114,0.523,8.14,0.160,0.25,0.87,4.46
CalCOFI,2105SH,026,,2105_026d,09-May-2021 17:53:55,09-May-2021 09:53:55,33.82466,-118.62558,086.7 035.0,086.7,035.0,31.000,31.225,,12.3682,,12.3674,,12.3678,33.5215,,33.5227,33.5139,,33.5158,33.5193,4.9155,,5.2067,5.2984,4.9614,,5.1984,5.2471,5.2728,214.096,226.3148,226.5257,216.096,236.3528,225.5603,226.0430,1.3398,,5.7249,2.3595,2.3233,,1.3334,,25.3716,,25.3659,,,,,,,,,,,12.3641,12.3634,0.0911,260.219,81.098,81.849,,,,,,,,,,,,
CalCOFI,2105SH,026,,2105_026d,09-May-2021 17:53:58,09-May-2021 09:53:58,33.82466,-118.62556,086.7 035.0,086.7,035.0,32.000,32.232,,12.3187,,12.3178,,12.3183,33.5265,,33.5277,33.5195,,33.5214,33.5246,4.8035,,5.0896,5.1803,4.8703,,5.1041,5.1530,5.1667,209.215,221.2122,221.4664,212.124,231.0813,221.4899,221.4782,1.3699,,5.7598,2.4089,2.2843,,1.3334,,25.3850,,25.3798,,,,,,,,,,,12.3146,12.3137,0.0937,258.974,79.170,80.266,,,,,,,,,,,,
CalCOFI,2105SH,026,,2105_026d,09-May-2021 17:54:00,09-May-2021 09:54:00,33.82468,-118.62556,086.7 035.0,086.7,035.0,33.000,33.239,,12.2844,,12.2837,,12.2841,33.5307,,33.5319,33.5256,,33.5275,33.5297,4.7414,,5.0247,5.1149,4.7896,,5.0205,5.0695,5.0922,206.506,218.3802,218.6584,208.605,228.1556,217.8838,218.2711,0.8776,,4.6443,1.6013,2.2524,,1.3334,,25.3949,,25.3910,,,,,,,,,,,12.2801,12.2794,0.0963,258.056,78.092,78.882,,,,,,,,,,,,
CalCOFI,2105SH,026,,2105_026d,09-May-2021 17:54:02,09-May-2021 09:54:02,33.82468,-118.62556,086.7 035.0,086.7,035.0,34.000,34.247,,12.2658,,12.2640,,12.2649,33.5334,,33.5346,33.5275,,33.5294,33.5320,4.6961,,4.9773,5.0671,4.7830,,5.0136,5.0627,5.0649,204.531,216.3155,216.6112,208.318,226.0226,217.5897,217.1005,0.7040,,3.9739,1.3166,2.2356,,1.3334,,25.4005,,25.3963,,,,,,,,,,,12.2614,12.2596,0.0989,257.543,77.317,78.742,,,,,,,,,,,,
CalCOFI,2105SH,026,,2105_026d,09-May-2021 17:54:03,09-May-2021 09:54:03,33.82468,-118.62554,086.7 035.0,086.7,035.0,35.000,35.254,,12.2256,,12.2250,,12.2253,33.5382,,33.5394,33.5331,,33.5350,33.5372,4.6877,,4.9685,5.0583,4.7880,,5.0188,5.0679,5.0631,204.165,215.9329,216.2319,208.532,225.6273,217.8090,217.0205,0.5724,,3.3693,1.1007,2.2211,,1.3334,,25.4119,,25.4081,,,,,,,,,,,12.2210,12.2205,0.1015,256.483,77.117,78.763,,,,,,,,,,,,
CalCOFI,2105SH,026,,2105_026d,09-May-2021 17:54:04,09-May-2021 09:54:04,33.82469,-118.62554,086.7 035.0,086.7,035.0,36.000,36.261,,12.2009,,12.2001,,12.2005,33.5442,,33.5454,33.5402,,33.5421,33.5438,4.6873,,4.9681,5.0578,4.7713,,5.0015,5.0506,5.0542,204.147,215.9141,216.2132,207.804,225.6078,217.0629,216.6381,0.5282,,3.1476,1.0282,2.2047,,1.3334,,25.4213,,25.4184,,,,,,,,,,,12.1962,12.1955,0.1041,255.613,77.074,78.451,,,,,,,,,,,,
CalCOFI,2105SH,026,,2105_026d,09-May-2021 17:54:07,09-May-2021 09:54:07,33.82470,-118.62553,086.7 035.0,086.7,035.0,37.000,37.269,,12.1616,,12.1591,,12.1604,33.5493,,33.5505,33.5448,,33.5467,33.5486,4.6290,,4.9071,4.9964,4.6818,,4.9088,4.9581,4.9773,201.602,213.2535,213.5752,203.903,222.8592,213.0653,213.3203,0.4917,,2.9575,0.9683,2.1815,,1.3334,,25.4328,,25.4298,,,,,,,,,,,12.1568,12.1543,0.1066,254.547,76.054,76.916,,,,,,,,,,,,
CalCOFI,2105SH,026,,2105_026d,09-May-2021 17:54:09,09-May-2021 09:54:09,33.82470,-118.62552,086.7 035.0,086.7,035.0,38.000,38.276,,12.0937,,12.0912,,12.0925,33.5531,,33.5543,33.5486,,33.5505,33.5524,4.5307,,4.8043,4.8928,4.5896,,4.8133,4.8628,4.8778,197.320,208.7771,209.1368,199.883,218.2347,208.9458,209.0413,0.4401,,2.6779,0.8836,2.1557,,1.3334,,25.4487,,25.4456,,,,,,,,,,,12.0888,12.0863,0.1092,253.058,74.336,75.295,,,,,,,,,,,,
CalCOFI,2105SH,026,,2105_026d,09-May-2021 17:54:11,09-May-2021 09:54:11,33.82470,-118.62552,086.7 035.0,086.7,035.0,39.000,39.283,,12.0531,,12.0522,,12.0527,33.5551,,33.5563,33.5510,,33.5529,33.5546,4.4863,,4.7579,4.8460,4.5540,,4.7764,4.8260,4.8360,195.383,206.7522,207.1290,198.333,216.1427,207.3574,207.2432,0.3667,,2.2580,0.7632,2.1372,,1.3334,,25.4579,,25.4548,,,,,,,,,,,12.0481,12.0472,0.1117,252.204,73.545,74.652,,,,,,,,,,,,
CalCOFI,2105SH,026,,2105_026d,09-May-2021 17:54:13,09-May-2021 09:54:13,33.82472,-118.62552,086.7 035.0,086.7,035.0,40.000,40.291,,12.0334,,12.0328,,12.0331,33.5565,,33.5577,33.5530,,33.5549,33.5563,4.4386,,4.7080,4.7957,4.4866,,4.7066,4.7563,4.7760,193.307,204.5819,204.9771,195.397,213.9006,204.3486,204.6629,0.3486,,2.1506,0.7335,2.1203,,1.3334,,25.4628,,25.4601,,,,,,,,,,,12.0282,12.0277,0.1143,251.766,72.734,73.518,,,,,,,,,,,,
CalCOFI,2105SH,026,,2105_026d,09-May-2021 17:54:14,09-May-2021 09:54:14,33.82472,-118.62551,086.7 035.0,086.7,035.0,41.000,41.298,,11.9839,,11.9811,,11.9825,33.5631,,33.5643,33.5588,,33.5607,33.5625,4.3714,,4.6377,4.7248,4.3957,,4.6125,4.6624,4.6936,190.375,201.5168,201.9380,191.434,210.7340,200.2875,201.1128,0.2862,,1.7679,0.6312,2.0970,,1.3334,,25.4772,,25.4744,,,,,,,,,,,11.9786,11.9758,0.1168,250.417,71.561,71.953,,,,,,,,,,,,
CalCOFI,2105SH,026,,2105_026d,09-May-2021 17:54:16,09-May-2021 09:54:16,33.82472,-118.62550,086.7 035.0,086.7,035.0,42.000,42.306,,11.9364,,11.9344,,11.9354,33.5673,,33.5685,33.5631,,33.5650,33.5668,4.2173,,4.4766,4.5624,4.2227,,4.4333,4.4835,4.5230,183.662,194.4991,194.9798,183.899,203.4840,192.5658,193.7728,0.2513,,1.5458,0.5739,2.0708,,1.3334,,25.4894,,25.4865,,,,,,,,,,,11.9311,11.9290,0.1193,249.276,68.971,69.055,,,,,,,,,,,,
CalCOFI,2105SH,026,,2105_026d,09-May-2021 17:54:18,09-May-2021 09:54:18,33.82473,-118.62550,086.7 035.0,086.7,035.0,43.000,43.313,,11.8414,,11.8355,,11.8385,33.5707,,33.5719,33.5637,,33.5656,33.5688,4.0804,,4.3334,4.4181,4.1060,,4.3124,4.3629,4.3905,177.696,188.2622,188.7958,178.814,197.0407,187.3549,188.0754,0.2397,,1.4707,0.5549,2.0425,,1.3334,,25.5099,,25.5055,,,,,,,,,,,11.8359,11.8300,0.1218,247.348,66.601,67.008,,,,,,,,,,,,
CalCOFI,2105SH,026,,2105_026d,09-May-2021 17:54:21,09-May-2021 09:54:21,33.82474,-118.62550,086.7 035.0,086.7,035.0,44.000,44.320,,11.7023,,11.6973,,11.6998,33.5733,,33.5745,33.5678,,33.5697,33.5721,3.9031,,4.1480,4.2312,3.9271,,4.1271,4.1779,4.2046,169.970,180.1854,180.7875,171.019,188.6966,179.3668,180.0772,0.1887,,1.1327,0.4712,1.9942,,1.3334,,25.5378,,25.5344,,,,,,,,,,,11.6967,11.6917,0.1243,244.710,63.522,63.904,,,,,,,,,,,,
CalCOFI,2105SH,026,,2105_026d,09-May-2021 17:54:23,09-May-2021 09:54:23,33.82474,-118.62548,086.7 035.0,086.7,035.0,45.000,45.328,,11.5099,,11.5022,,11.5061,33.5949,,33.5961,33.5860,,33.5879,33.5920,3.7463,,3.9840,4.0659,3.8147,,4.0107,4.0617,4.0638,163.136,173.0412,173.7038,166.114,181.3158,174.3403,174.0221,0.1541,,0.8963,0.4145,1.9492,,1.3334,,25.5901,,25.5846,,,,,,,,,,,11.5043,11.4965,0.1268,239.742,60.731,61.825,,,,,,,,,,,,
CalCOFI,2105SH,026,,2105_026d,09-May-2021 17:54:24,09-May-2021 09:54:24,33.82476,-118.62548,086.7 035.0,086.7,035.0,46.000,46.335,,11.4112,,11.4095,,11.4104,33.6062,,33.6074,33.5997,,33.6016,33.6045,3.7276,,3.9644,4.0462,3.7894,,3.9845,4.0356,4.0409,162.319,172.1871,172.8570,165.009,180.4335,173.2080,173.0325,0.1285,,0.7177,0.3725,1.9215,,1.3334,,25.6170,,25.6122,,,,,,,,,,,11.4054,11.4038,0.1292,237.206,60.306,61.301,,,,,,,,,,,,
CalCOFI,2105SH,026,,2105_026d,09-May-2021 17:54:26,09-May-2021 09:54:26,33.82476,-118.62548,086.7 035.0,086.7,035.0,47.000,47.342,,11.3957,,11.3950,,11.3954,33.6081,,33.6093,33.6030,,33.6049,33.6071,3.7063,,3.9421,4.0237,3.7575,,3.9514,4.0026,4.0132,161.386,171.2117,171.8899,163.618,179.4258,171.7825,171.8362,0.1304,,0.7311,0.3756,1.8960,,1.3334,,25.6213,,25.6175,,,,,,,,,,,11.3899,11.3892,0.1315,236.814,59.941,60.767,,,,,,,,,,,,
CalCOFI,2105SH,026,,2105_026d,09-May-2021 17:54:28,09-May-2021 09:54:28,33.82476,-118.62546,086.7 035.0,086.7,035.0,48.000,48.350,,11.3476,,11.3460,,11.3468,33.6165,,33.6177,33.6114,,33.6133,33.6155,3.6680,,3.9021,3.9833,3.7331,,3.9261,3.9774,3.9804,159.720,169.4701,170.1630,162.553,177.6265,170.6911,170.4271,0.1180,,0.6436,0.3553,1.8615,,1.3334,,25.6366,,25.6329,,,,,,,,,,,11.3417,11.3401,0.1339,235.379,59.266,60.313,,,,,,,,,,,,
CalCOFI,2105SH,026,,2105_026d,09-May-2021 17:54:30,09-May-2021 09:54:30,33.82478,-118.62546,086.7 035.0,086.7,035.0,49.000,49.357,,11.3093,,11.3090,,11.3092,33.6209,,33.6221,33.6171,,33.6190,33.6206,3.6392,,3.8720,3.9530,3.7112,,3.9035,3.9547,3.9539,158.461,168.1539,168.8580,161.600,176.2668,169.7145,169.2863,0.1110,,0.5938,0.3438,1.8252,,1.3334,,25.6470,,25.6442,,,,,,,,,,,11.3033,11.3029,0.1363,234.414,58.753,59.915,,,,,,,,,,,,
CalCOFI,2105SH,026,,2105_026d,09-May-2021 17:54:32,09-May-2021 09:54:32,33.82478,-118.62546,086.7 035.0,086.7,035.0,50.000,50.365,,11.2959,,11.2956,,11.2958,33.6229,,33.6241,33.6194,,33.6213,33.6227,3.6241,,3.8562,3.9371,3.6915,,3.8831,3.9344,3.9358,157.805,167.4681,168.1780,160.741,175.5583,168.8342,168.5061,0.1161,,0.6301,0.3521,1.8019,,1.3334,,25.6510,,25.6484,,,,,,,,,,,11.2897,11.2894,0.1386,234.058,58.494,59.580,,,,,,,,,,,,
CalCOFI,2105SH,026,,2105_026d,09-May-2021 17:54:34,09-May-2021 09:54:34,33.82478,-118.62544,086.7 035.0,086.7,035.0,51.000,51.372,,11.2779,,11.2773,,11.2776,33.6242,,33.6254,33.6212,,33.6231,33.6243,3.6022,,3.8333,3.9140,3.6633,,3.8538,3.9052,3.9096,156.852,166.4719,167.1902,159.509,174.5291,167.5717,167.3810,0.1091,,0.5803,0.3407,1.7850,,1.3334,,25.6554,,25.6531,,,,,,,,,,,11.2716,11.2711,0.1410,233.668,58.119,59.102,,,,,,,,,,,,
CalCOFI,2105SH,026,,2105_026d,09-May-2021 17:54:36,09-May-2021 09:54:36,33.82479,-118.62544,086.7 035.0,086.7,035.0,52.000,52.380,,11.2298,,11.2272,,11.2285,33.6279,,33.6291,33.6227,,33.6246,33.6269,3.5986,,3.8295,3.9102,3.6497,,3.8398,3.8912,3.9007,156.690,166.3025,167.0223,158.919,174.3541,166.9671,166.9947,0.1121,,0.6017,0.3456,1.7743,,1.3334,,25.6670,,25.6633,,,,,,,,,,,11.2234,11.2208,0.1434,232.585,58.002,58.822,52,11.146,,,165.28,0.391,0.328,16.38,0.046,0.00,1.37,15.00
CalCOFI,2105SH,026,,2105_026d,09-May-2021 17:54:37,09-May-2021 09:54:37,33.82480,-118.62544,086.7 035.0,086.7,035.0,53.000,53.387,,11.1487,,11.1479,,11.1483,33.6326,,33.6338,33.6287,,33.6306,33.6322,3.5892,,3.8197,3.9003,3.6477,,3.8377,3.8891,3.8947,156.278,165.8718,166.5952,158.825,173.9092,166.8708,166.7330,0.0878,,0.4273,0.3057,1.7649,,1.3334,,25.6853,,25.6823,,,,,,,,,,,11.1422,11.1414,0.1457,230.861,57.752,58.691,,,,,,,,,,,,
CalCOFI,2105SH,026,,2105_026d,09-May-2021 17:54:40,09-May-2021 09:54:40,33.82480,-118.62542,086.7 035.0,086.7,035.0,54.000,54.394,,11.1371,,11.1368,,11.1370,33.6327,,33.6339,33.6301,,33.6320,33.6330,3.5726,,3.8023,3.8828,3.6437,,3.8335,3.8850,3.8839,155.557,165.1181,165.8479,158.652,173.1305,166.6935,166.2707,0.0832,,0.3940,0.2982,1.7560,,1.3334,,25.6874,,25.6854,,,,,,,,,,,11.1305,11.1302,0.1480,230.679,57.471,58.614,,,,,,,,,,,,
CalCOFI,2105SH,026,,2105_026d,09-May-2021 17:54:42,09-May-2021 09:54:42,33.82480,-118.62542,086.7 035.0,086.7,035.0,55.000,55.402,,11.1323,,11.1324,,11.1324,33.6328,,33.6340,33.6308,,33.6327,33.6334,3.5687,,3.7982,3.8787,3.6394,,3.8291,3.8805,3.8796,155.385,164.9383,165.6696,158.466,172.9447,166.5029,166.0863,0.0825,,0.3889,0.2970,1.7492,,1.3334,,25.6884,,25.6868,,,,,,,,,,,11.1256,11.1257,0.1503,230.611,57.402,58.540,,,,,,,,,,,,